STARLINK-36083

Last updated on Mon Dec 15 2025 00:02:12 GMT+0000 (Coordinated Universal Time)

1 66857U 25281K 25348.25003472 -.01227711 00000+0 -50816-2 0 9999 2 66857 43.0004 112.9808 0001431 272.9974 271.2532 15.87311585 1640
UTC large
Height (km)
Speed (km/s)
/
Latitude / Longitude
Inclination (degrees)
Orbital Period (minutes)
Azimuth
Elevation
Range (km)
Doppler Factor

Next 0 passes for location: London (51.5072 / 0.1276)

Sorry there are no passes over London.